Regional Weather Roundup
Issued by NWS

Home | Current Version | Previous Version | Graphics & Text | Print | Product List | Glossary On
Versions: 1 2 3 4 5 6 7 8 9 10 11 12 13 14 15 16 17 18 19 20 21 22 23 24 25 26 27 28 29 30 31 32 33 34 35 36 37 38 39 40 41 42 43 44 45 46 47 48 49 50
000
ASUS45 KCYS 251110
RWRWY

WYOMING REGIONAL WEATHER ROUNDUP
NATIONAL WEATHER SERVICE CHEYENNE WY
500 AM MDT MON MAY 25 2015

NOTE:  "FAIR" INDICATES FEW OR NO CLOUDS BELOW 12,000 FEET
WITH NO SIGNIFICANT WEATHER AND/OR OBSTRUCTIONS TO VISIBILITY.

WYZ001-251200-
YELLOWSTONE NATIONAL PARK

CITY           SKY/WX    TMP DP  RH WIND       PRES   REMARKS
LK YELLOWSTONE   N/A     30  28  92 CALM      30.03S
W YELLOWSTONE  NOT AVBL

$$
WYZ002>013-054>058-071-098>099-251200-
NORTHERN WYOMING

CITY           SKY/WX    TMP DP  RH WIND       PRES   REMARKS
JACKSON        CLOUDY    41  37  87 CALM      29.98S
CODY           CLOUDY    48  41  76 CALM      29.95S
GREYBULL       CLOUDY    50  47  89 CALM      29.90R
WORLAND        CLOUDY    50  47  89 MISG      29.90S
SHERIDAN       LGT RAIN  48  47  96 CALM      29.92S
BUFFALO        CLOUDY    45  44  97 NW9       29.92F
GILLETTE       CLOUDY    49  48  97 N7        29.88S FOG
HULETT         FOG       50  48  93 N7        29.88S VSB<1/4
NEWCASTLE      CLOUDY    48  46  93 CALM      29.86S

$$
WYZ014>020-022>026-101>103-251200-
CENTRAL WYOMING

CITY           SKY/WX    TMP DP  RH WIND       PRES   REMARKS
BIG PINEY      CLOUDY    42  39  89 CALM      29.99S
PINEDALE       CLOUDY    41  39  93 CALM      30.00F
DUBOIS         PTSUNNY   37  34  87 NW9       29.97S WCI  31
LANDER         LGT RAIN  44  42  93 SW7       29.95S
RIVERTON       LGT RAIN  45  43  93 SW9       29.95S
CASPER         CLOUDY    45  42  89 NW7       29.92S
DOUGLAS        LGT RAIN  47  46  97 W12       29.88S

$$
WYZ021-027>030-104>119-251200-
SOUTHERN WYOMING

CITY           SKY/WX    TMP DP  RH WIND       PRES   REMARKS
EVANSTON       LGT RAIN  42  40  92 W6        29.99S
KEMMERER       CLOUDY    41  37  87 CALM      30.00S
FORT BRIDGER   CLOUDY    43  43 100 W7        30.01S
ROCK SPRINGS   CLOUDY    41  39  93 CALM      29.99R
DIXON          CLOUDY    42  39  90 CALM      30.00S
RAWLINS        CLOUDY    42  40  92 W5        29.96S
SARATOGA       CLOUDY    39  36  87 CALM      29.98R
LARAMIE        CLOUDY    39  35  86 CALM      29.92S
CHEYENNE       CLOUDY    44  41  89 NW6       29.88R
TORRINGTON     LGT RAIN  50  48  93 NW7       29.83S
PINE BLUFFS    DRIZZLE   45  45 100 NW6       29.86S

$$



USA.gov is the U.S. government's official web portal to all federal, state and local government web resources and services.